Retour au catalogue

PSLV DEB

ActifSSO
NORAD 41792·DEBRIS·🇮🇳 India

Lancé Sep 26, 2016 depuis Satish Dhawan Space Centre

Loading…

Prochains Passages (prochaines 24 heures)

TLE

FraisSource: Space-Track

Époque: Sep 13, 2026, 22:22 UTC

1 41792U 16059K   26256.93197979  .00002013  00000-0  27061-3 0  9994
2 41792  97.7750 275.5032 0019508 218.5958 141.3861 14.80228817534002

Suivez PSLV DEB en temps réel avec AllMySat

Download on the App Store